Showing default

GONETS D1 1, 23787

Orbit data source: Space-Track

GONETS D1 1, 23787 is a payload satellite owned by Gonets (CIS) in LEO that was launched on Mon, 19 Feb 1996 UTC via a TSIKLON-3 launch vehicle from the Plesetsk Missile And Space Complex (PKMTR). Payload-class satellites include a variety of spacecraft equipped with specific instruments for various scientific and technological missions. These include communications satellites like Starlink; space stations such as the ISS; scientific satellites like the Hubble; Earth observation satellites from companies like Planet Labs, Umbra, and HawkEye 360; GPS; miniature CubeSats for education and research; and military/defense satellites.

Loading next visibility...
Identifier
23787, 1996-009A
Orbit
LEO
Country
Flag of CISCIS
Related business
Manufacturer
NPO PM
Mission
Non-operational Civil Communications
Bus & Motor
STRELA-3, Unknown motor
Mass
225 kg wet, 225 kg dry
Launch date (UTC)
1996-02-19 (30 years ago)
Launch vehicle
TSIKLON-3
Launch site
Plesetsk Missile And Space Complex (PKMTR)
Object type
Payload
Rocket body
Debris
Shape & HBR
Cyl + 1 Ant, 3.5 m
Radar Cross Section
1.798 m², Medium (>0.1 m² and < 1m²)

Expand to show TLE details & history
Last TLE update: 9 hours ago

TLE from 9 hours ago
0 GONETS D1 1
1 23787U 96009A   25299.89894962  .00000032  00000-0  11950-3 0  9997
2 23787  82.5731  88.2897 0010871 208.6279 266.5166 12.64099868369832
Epoch: 2025-10-26T21:34Z
TLE epoch observation values (Epoch: 2025-10-26T21:34:29.247Z)
Latitude
64.05161°
Longitude
-106.30015°
Altitude
1,417.592 km
Speed
7.157 km/s
True Right ascension
16h 51m 19s
True Declination
63° 55' 39"
Sunlit
Object was in daylight at epoch
Visualization orbit readout
Latitude
Unknown
Longitude
Unknown
Altitude
Unknown
Speed
Unknown
Apparent Right ascension
Unknown
Apparent Declination
Unknown
Sunlit
N/A
Visualization observer readout
Local Sidereal Time
02:18:03
Azimuth
Unknown
Elevation
Unknown
Doppler factor
Unknown
Orbital elements
Apogee altitude
1,411.845 km
Perigee altitude
1,394.927 km
Semi-major axis
7,781.523 km
Eccentricity
0.00109
Inclination
82.5731°
RAAN
88.2897°
Arg. of periapsis
208.6279°
True anomaly
266.39227°
Mean anomaly
266.5166°
Eccentric anomaly
266.45443°
Mean motion
3.16189 °/min
Orbital period
113.86 mins
BSTAR
0.0001195
Loading maneuver chart data...
Computing Atmospheric mass density...
Loading historical data...
Loading historical data...
Loading historical data...
Loading historical data...
Loading historical data...
Loading historical data...
Loading historical data...

Documentation

Showing up to 5 results
|